When you browse on this site, cookies collect data to enhance your experience and personalize the content and advertising you see.
Visit our Privacy Policy to learn more. By continuing to use the site, you agree to this use of cookies and data.
  • In Österreich
  • Länderverzeichnis
  • Für 7 Tage
  • Wassertemperatur
  • Satellitenkarten
  • Wetterkarte
  • News
  • Widgets
  • user-avatar
    Anmelden

    Stündliche Wetter Jablonna

    Heute, 16 Januar, Mittwoch

    Zeit Temperatur Niederschläge Wind Luftdruck Luftfeuchtigkeit
    00:00 +3°C° 0.1 mm 9 m/S 746 mmHg 85%
    01:00 +3°C° 0 mm 7 m/S 746 mmHg 85%
    02:00 +3°C° 0.4 mm 7 m/S 746 mmHg 86%
    03:00 +3°C° 0.4 mm 6 m/S 746 mmHg 88%
    04:00 +3°C° 0.4 mm 6 m/S 747 mmHg 90%
    05:00 +4°C° 0.3 mm 6 m/S 747 mmHg 88%
    06:00 +4°C° 0.3 mm 7 m/S 747 mmHg 86%
    07:00 +4°C° 0.3 mm 7 m/S 747 mmHg 85%
    08:00 +4°C° 0 mm 7 m/S 748 mmHg 84%
    09:00 +4°C° 0 mm 7 m/S 748 mmHg 83%
    10:00 +4°C° 0 mm 6 m/S 748 mmHg 82%
    11:00 +4°C° 0.1 mm 6 m/S 748 mmHg 82%
    12:00 +4°C° 0.1 mm 6 m/S 748 mmHg 82%
    13:00 +4°C° 0.1 mm 6 m/S 748 mmHg 82%
    14:00 +4°C° 0 mm 6 m/S 748 mmHg 82%
    15:00 +5°C° 0 mm 5 m/S 748 mmHg 82%
    16:00 +5°C° 0 mm 5 m/S 747 mmHg 82%
    17:00 +5°C° 0 mm 5 m/S 747 mmHg 82%
    18:00 +5°C° 0 mm 5 m/S 747 mmHg 81%
    19:00 +3°C° 0 mm 5 m/S 746 mmHg 80%
    20:00 +3°C° 0 mm 5 m/S 746 mmHg 80%
    21:00 +2°C° 0 mm 5 m/S 746 mmHg 80%
    22:00 +2°C° 0 mm 5 m/S 745 mmHg 80%
    23:00 +2°C° 0 mm 5 m/S 745 mmHg 78%

    Morgen, 17 Januar, Donnerstag

    Zeit Temperatur Niederschläge Wind Luftdruck Luftfeuchtigkeit
    00:00 +2°C° 0 mm 5 m/S 744 mmHg 76%
    01:00 +2°C° 0 mm 5 m/S 744 mmHg 73%
    02:00 +2°C° 0 mm 6 m/S 743 mmHg 72%
    03:00 +2°C° 0 mm 6 m/S 743 mmHg 71%
    04:00 +2°C° 0 mm 6 m/S 742 mmHg 69%
    05:00 +2°C° 0 mm 6 m/S 742 mmHg 71%
    06:00 +2°C° 0 mm 7 m/S 742 mmHg 73%
    07:00 +2°C° 0 mm 7 m/S 742 mmHg 74%
    08:00 +2°C° 0 mm 7 m/S 742 mmHg 74%
    09:00 +3°C° 0 mm 7 m/S 743 mmHg 75%
    10:00 +3°C° 0 mm 7 m/S 743 mmHg 75%
    11:00 +4°C° 0 mm 8 m/S 743 mmHg 71%
    12:00 +4°C° 0 mm 8 m/S 743 mmHg 66%
    13:00 +5°C° 0 mm 8 m/S 743 mmHg 62%
    14:00 +4°C° 0 mm 7 m/S 742 mmHg 64%
    15:00 +4°C° 0 mm 6 m/S 742 mmHg 66%
    16:00 +3°C° 0 mm 5 m/S 742 mmHg 68%
    17:00 +3°C° 0.3 mm 6 m/S 742 mmHg 70%
    18:00 +3°C° 0.3 mm 7 m/S 742 mmHg 71%
    19:00 +2°C° 0.3 mm 8 m/S 742 mmHg 73%
    20:00 +1°C° 0.1 mm 8 m/S 743 mmHg 69%
    21:00 0°C° 0.1 mm 8 m/S 743 mmHg 66%
    22:00 -1°C° 0.1 mm 7 m/S 744 mmHg 62%
    23:00 -1°C° 0 mm 7 m/S 744 mmHg 65%

    übermorgen, 18 Januar, Freitag

    Zeit Temperatur Niederschläge Wind Luftdruck Luftfeuchtigkeit
    00:00 -2°C° 0 mm 7 m/S 745 mmHg 67%
    01:00 -2°C° 0 mm 7 m/S 745 mmHg 69%
    02:00 -2°C° 0.1 mm 7 m/S 745 mmHg 70%
    03:00 -2°C° 0.1 mm 7 m/S 745 mmHg 70%
    04:00 -2°C° 0.1 mm 8 m/S 746 mmHg 71%
    05:00 -2°C° 0.4 mm 8 m/S 747 mmHg 72%
    06:00 -2°C° 0.4 mm 8 m/S 748 mmHg 73%
    07:00 -3°C° 0.4 mm 7 m/S 749 mmHg 74%
    08:00 -2°C° 0 mm 7 m/S 750 mmHg 76%
    09:00 -2°C° 0 mm 7 m/S 751 mmHg 77%
    10:00 -2°C° 0 mm 6 m/S 752 mmHg 79%
    11:00 -2°C° 0 mm 6 m/S 753 mmHg 75%
    12:00 -1°C° 0 mm 5 m/S 754 mmHg 70%
    13:00 -1°C° 0 mm 5 m/S 755 mmHg 65%
    14:00 -1°C° 0 mm 4 m/S 755 mmHg 68%
    15:00 -1°C° 0 mm 3 m/S 756 mmHg 71%
    16:00 -1°C° 0 mm 3 m/S 756 mmHg 75%
    17:00 -2°C° 0 mm 2 m/S 756 mmHg 78%
    18:00 -2°C° 0 mm 2 m/S 757 mmHg 81%
    19:00 -2°C° 0 mm 2 m/S 757 mmHg 85%
    20:00 -2°C° 0 mm 2 m/S 757 mmHg 86%
    21:00 -2°C° 0 mm 2 m/S 757 mmHg 87%
    22:00 -3°C° 0 mm 2 m/S 758 mmHg 88%
    23:00 -3°C° 0 mm 2 m/S 758 mmHg 87%

    19 Januar, Samstag

    Zeit Temperatur Niederschläge Wind Luftdruck Luftfeuchtigkeit
    00:00 -3°C° 0 mm 2 m/S 758 mmHg 86%
    01:00 -4°C° 0 mm 3 m/S 758 mmHg 85%
    02:00 -4°C° 0 mm 3 m/S 758 mmHg 83%
    03:00 -3°C° 0 mm 2 m/S 758 mmHg 81%
    04:00 -3°C° 0 mm 2 m/S 757 mmHg 79%
    05:00 -3°C° 0 mm 2 m/S 757 mmHg 78%
    06:00 -3°C° 0 mm 2 m/S 757 mmHg 76%
    07:00 -3°C° 0 mm 2 m/S 757 mmHg 75%
    08:00 -2°C° 0 mm 2 m/S 758 mmHg 73%
    09:00 -2°C° 0 mm 2 m/S 758 mmHg 70%
    10:00 -1°C° 0 mm 2 m/S 758 mmHg 67%
    11:00 +1°C° 0 mm 2 m/S 758 mmHg 64%
    12:00 +1°C° 0 mm 2 m/S 758 mmHg 60%
    13:00 +3°C° 0 mm 1 m/S 757 mmHg 57%
    14:00 +2°C° 0 mm 1 m/S 757 mmHg 60%
    15:00 +2°C° 0 mm 1 m/S 757 mmHg 62%
    16:00 +1°C° 0 mm 1 m/S 757 mmHg 65%
    17:00 +1°C° 0 mm 1 m/S 757 mmHg 65%
    18:00 0°C° 0 mm 1 m/S 757 mmHg 66%
    19:00 0°C° 0 mm 1 m/S 757 mmHg 66%
    20:00 0°C° 0 mm 1 m/S 757 mmHg 66%
    21:00 0°C° 0 mm 1 m/S 757 mmHg 66%
    22:00 0°C° 0 mm 1 m/S 757 mmHg 67%
    23:00 0°C° 0 mm 1 m/S 757 mmHg 67%

    20 Januar, Sonntag

    Zeit Temperatur Niederschläge Wind Luftdruck Luftfeuchtigkeit
    00:00 -2°C° 0 mm 0 m/S 757 mmHg 67%
    01:00 -2°C° 0 mm 0 m/S 757 mmHg 68%
    02:00 -2°C° 0 mm 0 m/S 757 mmHg 68%
    03:00 -2°C° 0 mm 0 m/S 757 mmHg 68%
    04:00 -2°C° 0 mm 0 m/S 757 mmHg 68%
    05:00 -2°C° 0 mm 0 m/S 757 mmHg 68%
    06:00 -2°C° 0 mm 0 m/S 757 mmHg 68%
    07:00 -2°C° 0 mm 0 m/S 758 mmHg 69%
    08:00 -2°C° 0 mm 0 m/S 758 mmHg 67%
    09:00 0°C° 0 mm 1 m/S 758 mmHg 65%
    10:00 0°C° 0 mm 1 m/S 759 mmHg 63%
    11:00 +1°C° 0 mm 1 m/S 759 mmHg 61%
    12:00 +1°C° 0 mm 2 m/S 759 mmHg 60%
    13:00 +1°C° 0 mm 2 m/S 759 mmHg 58%
    14:00 +1°C° 0 mm 2 m/S 759 mmHg 63%
    15:00 -1°C° 0 mm 2 m/S 759 mmHg 68%
    16:00 -1°C° 0 mm 2 m/S 759 mmHg 73%
    17:00 -2°C° 0 mm 2 m/S 759 mmHg 77%
    18:00 -2°C° 0 mm 2 m/S 760 mmHg 81%
    19:00 -2°C° 0 mm 2 m/S 760 mmHg 85%
    20:00 -3°C° 0 mm 2 m/S 761 mmHg 86%
    21:00 -3°C° 0 mm 2 m/S 761 mmHg 87%
    22:00 -3°C° 0 mm 2 m/S 762 mmHg 89%
    23:00 -4°C° 0 mm 2 m/S 762 mmHg 86%

    21 Januar, Montag

    Zeit Temperatur Niederschläge Wind Luftdruck Luftfeuchtigkeit
    00:00 -4°C° 0 mm 2 m/S 763 mmHg 84%
    01:00 -4°C° 0 mm 2 m/S 763 mmHg 81%
    02:00 -4°C° 0 mm 2 m/S 763 mmHg 80%
    03:00 -4°C° 0 mm 2 m/S 764 mmHg 78%
    04:00 -4°C° 0 mm 2 m/S 764 mmHg 77%
    05:00 -4°C° 0 mm 2 m/S 764 mmHg 76%
    06:00 -2°C° 0 mm 1 m/S 765 mmHg 76%
    07:00 -2°C° 0 mm 1 m/S 765 mmHg 75%
    08:00 -2°C° 0 mm 1 m/S 765 mmHg 72%
    09:00 -1°C° 0 mm 1 m/S 766 mmHg 70%
    10:00 -1°C° 0 mm 1 m/S 766 mmHg 67%
    11:00 0°C° 0 mm 1 m/S 766 mmHg 63%
    12:00 0°C° 0 mm 1 m/S 766 mmHg 60%
    13:00 0°C° 0 mm 0 m/S 766 mmHg 56%
    14:00 -1°C° 0 mm 0 m/S 766 mmHg 58%
    15:00 -1°C° 0 mm 0 m/S 766 mmHg 61%
    16:00 -2°C° 0 mm 0 m/S 766 mmHg 63%
    17:00 -2°C° 0 mm 0 m/S 766 mmHg 64%
    18:00 -2°C° 0 mm 0 m/S 766 mmHg 65%
    19:00 -2°C° 0 mm 1 m/S 766 mmHg 67%
    20:00 -2°C° 0 mm 1 m/S 766 mmHg 68%
    21:00 -2°C° 0 mm 1 m/S 766 mmHg 68%
    22:00 -2°C° 0 mm 1 m/S 766 mmHg 69%
    23:00 -2°C° 0 mm 1 m/S 765 mmHg 70%
    Mehr zeigen